When you browse on this site, cookies collect data to enhance your experience and personalize the content and advertising you see.
Visit our Privacy Policy to learn more. By continuing to use the site, you agree to this use of cookies and data.
  • In Österreich
  • Länderverzeichnis
  • Für 7 Tage
  • Wassertemperatur
  • Satellitenkarten
  • Wetterkarte
  • News
  • Widgets
  • user-avatar
    Anmelden

    Stündliche Wetter Townsville

    Heute, 19 Juli, Freitag

    Zeit Temperatur Niederschläge Wind Luftdruck Luftfeuchtigkeit
    00:00 +14°C° 0 mm 2 m/S 757 mmHg 73%
    01:00 +14°C° 0 mm 2 m/S 756 mmHg 74%
    02:00 +14°C° 0 mm 2 m/S 756 mmHg 75%
    03:00 +13°C° 0 mm 2 m/S 756 mmHg 76%
    04:00 +13°C° 0 mm 2 m/S 756 mmHg 76%
    05:00 +13°C° 0 mm 2 m/S 756 mmHg 75%
    06:00 +13°C° 0 mm 2 m/S 757 mmHg 74%
    07:00 +13°C° 0 mm 2 m/S 757 mmHg 74%
    08:00 +15°C° 0 mm 2 m/S 757 mmHg 61%
    09:00 +18°C° 0 mm 2 m/S 758 mmHg 49%
    10:00 +21°C° 0 mm 2 m/S 758 mmHg 36%
    11:00 +21°C° 0 mm 2 m/S 757 mmHg 34%
    12:00 +22°C° 0 mm 3 m/S 756 mmHg 31%
    13:00 +24°C° 0 mm 3 m/S 756 mmHg 29%
    14:00 +24°C° 0 mm 3 m/S 756 mmHg 31%
    15:00 +22°C° 0 mm 3 m/S 756 mmHg 34%
    16:00 +22°C° 0 mm 4 m/S 755 mmHg 37%
    17:00 +20°C° 0 mm 3 m/S 756 mmHg 46%
    18:00 +17°C° 0 mm 3 m/S 756 mmHg 54%
    19:00 +15°C° 0 mm 2 m/S 756 mmHg 62%
    20:00 +15°C° 0 mm 2 m/S 756 mmHg 64%
    21:00 +15°C° 0 mm 2 m/S 757 mmHg 67%
    22:00 +14°C° 0 mm 2 m/S 757 mmHg 69%
    23:00 +14°C° 0 mm 2 m/S 757 mmHg 71%

    Morgen, 20 Juli, Samstag

    Zeit Temperatur Niederschläge Wind Luftdruck Luftfeuchtigkeit
    00:00 +14°C° 0 mm 2 m/S 757 mmHg 73%
    01:00 +13°C° 0 mm 2 m/S 757 mmHg 75%
    02:00 +13°C° 0 mm 2 m/S 757 mmHg 77%
    03:00 +13°C° 0 mm 2 m/S 757 mmHg 78%
    04:00 +13°C° 0 mm 2 m/S 756 mmHg 80%
    05:00 +12°C° 0 mm 2 m/S 757 mmHg 81%
    06:00 +12°C° 0 mm 2 m/S 757 mmHg 83%
    07:00 +12°C° 0 mm 2 m/S 757 mmHg 84%
    08:00 +15°C° 0 mm 2 m/S 757 mmHg 73%
    09:00 +17°C° 0 mm 2 m/S 757 mmHg 63%
    10:00 +20°C° 0 mm 2 m/S 758 mmHg 52%
    11:00 +21°C° 0 mm 3 m/S 757 mmHg 51%
    12:00 +22°C° 0 mm 3 m/S 756 mmHg 49%
    13:00 +24°C° 0 mm 3 m/S 756 mmHg 48%
    14:00 +22°C° 0 mm 4 m/S 755 mmHg 50%
    15:00 +22°C° 0 mm 4 m/S 755 mmHg 53%
    16:00 +22°C° 0 mm 4 m/S 755 mmHg 56%
    17:00 +20°C° 0 mm 3 m/S 755 mmHg 64%
    18:00 +18°C° 0 mm 3 m/S 756 mmHg 72%
    19:00 +17°C° 0 mm 2 m/S 756 mmHg 81%
    20:00 +16°C° 0 mm 2 m/S 756 mmHg 83%
    21:00 +16°C° 0 mm 2 m/S 756 mmHg 85%
    22:00 +15°C° 0 mm 2 m/S 757 mmHg 88%
    23:00 +15°C° 0 mm 2 m/S 756 mmHg 88%

    übermorgen, 21 Juli, Sonntag

    Zeit Temperatur Niederschläge Wind Luftdruck Luftfeuchtigkeit
    00:00 +15°C° 0 mm 2 m/S 756 mmHg 88%
    01:00 +15°C° 0 mm 2 m/S 756 mmHg 88%
    02:00 +15°C° 0 mm 2 m/S 756 mmHg 88%
    03:00 +14°C° 0 mm 3 m/S 755 mmHg 89%
    04:00 +13°C° 0 mm 3 m/S 755 mmHg 89%
    05:00 +13°C° 0 mm 3 m/S 755 mmHg 90%
    06:00 +13°C° 0 mm 3 m/S 756 mmHg 90%
    07:00 +13°C° 0 mm 3 m/S 756 mmHg 91%
    08:00 +17°C° 0 mm 3 m/S 756 mmHg 81%
    09:00 +20°C° 0 mm 3 m/S 756 mmHg 70%
    10:00 +23°C° 0 mm 2 m/S 756 mmHg 60%
    11:00 +24°C° 0 mm 3 m/S 755 mmHg 56%
    12:00 +25°C° 0 mm 3 m/S 755 mmHg 52%
    13:00 +26°C° 0 mm 3 m/S 754 mmHg 47%
    14:00 +25°C° 0 mm 3 m/S 754 mmHg 49%
    15:00 +25°C° 0 mm 3 m/S 753 mmHg 50%
    16:00 +24°C° 0 mm 3 m/S 753 mmHg 52%
    17:00 +23°C° 0 mm 2 m/S 753 mmHg 62%
    18:00 +20°C° 0 mm 2 m/S 754 mmHg 73%
    19:00 +18°C° 0 mm 2 m/S 754 mmHg 83%
    20:00 +17°C° 0 mm 2 m/S 754 mmHg 86%
    21:00 +17°C° 0 mm 2 m/S 755 mmHg 88%
    22:00 +17°C° 0 mm 2 m/S 755 mmHg 90%
    23:00 +17°C° 0 mm 2 m/S 755 mmHg 91%

    22 Juli, Montag

    Zeit Temperatur Niederschläge Wind Luftdruck Luftfeuchtigkeit
    00:00 +16°C° 0 mm 2 m/S 755 mmHg 92%
    01:00 +16°C° 0 mm 2 m/S 754 mmHg 92%
    02:00 +16°C° 0 mm 2 m/S 754 mmHg 92%
    03:00 +16°C° 0 mm 2 m/S 754 mmHg 93%
    04:00 +16°C° 0 mm 3 m/S 754 mmHg 93%
    05:00 +16°C° 0 mm 3 m/S 754 mmHg 92%
    06:00 +16°C° 0 mm 2 m/S 755 mmHg 91%
    07:00 +16°C° 0 mm 2 m/S 755 mmHg 90%
    08:00 +19°C° 0 mm 3 m/S 755 mmHg 80%
    09:00 +21°C° 0 mm 3 m/S 756 mmHg 70%
    10:00 +24°C° 0 mm 3 m/S 756 mmHg 60%
    11:00 +25°C° 0 mm 3 m/S 755 mmHg 58%
    12:00 +25°C° 0 mm 4 m/S 755 mmHg 56%
    13:00 +26°C° 0 mm 4 m/S 754 mmHg 54%
    14:00 +26°C° 0 mm 4 m/S 754 mmHg 57%
    15:00 +25°C° 0 mm 5 m/S 754 mmHg 60%
    16:00 +25°C° 0 mm 5 m/S 753 mmHg 63%
    17:00 +23°C° 0.1 mm 4 m/S 754 mmHg 70%
    18:00 +21°C° 0.1 mm 4 m/S 754 mmHg 77%
    19:00 +20°C° 0.1 mm 4 m/S 755 mmHg 84%
    20:00 +20°C° 0.1 mm 4 m/S 755 mmHg 86%
    21:00 +19°C° 0.1 mm 4 m/S 755 mmHg 88%
    22:00 +19°C° 0.1 mm 4 m/S 756 mmHg 89%
    23:00 +19°C° 0 mm 4 m/S 755 mmHg 89%

    23 Juli, Dienstag

    Zeit Temperatur Niederschläge Wind Luftdruck Luftfeuchtigkeit
    00:00 +19°C° 0 mm 4 m/S 755 mmHg 89%
    01:00 +18°C° 0 mm 4 m/S 755 mmHg 89%
    02:00 +18°C° 0 mm 3 m/S 755 mmHg 89%
    03:00 +18°C° 0 mm 3 m/S 755 mmHg 89%
    04:00 +17°C° 0 mm 3 m/S 755 mmHg 89%
    05:00 +17°C° 0 mm 3 m/S 755 mmHg 90%
    06:00 +17°C° 0 mm 3 m/S 756 mmHg 90%
    07:00 +17°C° 0 mm 3 m/S 756 mmHg 90%
    08:00 +19°C° 0 mm 2 m/S 757 mmHg 80%
    09:00 +21°C° 0 mm 2 m/S 757 mmHg 69%
    10:00 +24°C° 0 mm 1 m/S 757 mmHg 59%
    11:00 +25°C° 0 mm 2 m/S 756 mmHg 54%
    12:00 +27°C° 0 mm 2 m/S 756 mmHg 50%
    13:00 +28°C° 0 mm 2 m/S 755 mmHg 45%
    14:00 +27°C° 0 mm 2 m/S 755 mmHg 49%
    15:00 +26°C° 0 mm 3 m/S 755 mmHg 53%
    16:00 +25°C° 0 mm 3 m/S 754 mmHg 58%
    17:00 +23°C° 0 mm 2 m/S 755 mmHg 68%
    18:00 +20°C° 0 mm 2 m/S 755 mmHg 78%
    19:00 +19°C° 0 mm 2 m/S 756 mmHg 88%
    20:00 +18°C° 0.1 mm 2 m/S 756 mmHg 89%
    21:00 +18°C° 0.1 mm 2 m/S 756 mmHg 90%
    22:00 +18°C° 0.1 mm 2 m/S 757 mmHg 91%
    23:00 +18°C° 0.1 mm 2 m/S 757 mmHg 92%

    24 Juli, Mittwoch

    Zeit Temperatur Niederschläge Wind Luftdruck Luftfeuchtigkeit
    00:00 +18°C° 0.1 mm 3 m/S 757 mmHg 92%
    01:00 +18°C° 0.1 mm 3 m/S 757 mmHg 92%
    02:00 +17°C° 0 mm 3 m/S 756 mmHg 93%
    03:00 +17°C° 0 mm 3 m/S 756 mmHg 93%
    04:00 +17°C° 0 mm 3 m/S 756 mmHg 94%
    05:00 +17°C° 0 mm 3 m/S 757 mmHg 94%
    06:00 +17°C° 0 mm 3 m/S 757 mmHg 94%
    07:00 +17°C° 0 mm 3 m/S 757 mmHg 94%
    08:00 +18°C° 0 mm 3 m/S 758 mmHg 87%
    09:00 +20°C° 0 mm 3 m/S 758 mmHg 80%
    10:00 +22°C° 0 mm 4 m/S 758 mmHg 74%
    11:00 +22°C° 0.1 mm 4 m/S 757 mmHg 71%
    12:00 +23°C° 0.1 mm 5 m/S 757 mmHg 68%
    13:00 +25°C° 0.1 mm 5 m/S 756 mmHg 65%
    14:00 +25°C° 0 mm 5 m/S 756 mmHg 64%
    15:00 +23°C° 0 mm 5 m/S 756 mmHg 63%
    16:00 +23°C° 0 mm 5 m/S 756 mmHg 62%
    17:00 +22°C° 0 mm 5 m/S 756 mmHg 67%
    18:00 +21°C° 0 mm 5 m/S 757 mmHg 71%
    19:00 +20°C° 0 mm 4 m/S 757 mmHg 75%
    20:00 +20°C° 0 mm 4 m/S 757 mmHg 76%
    21:00 +20°C° 0 mm 4 m/S 758 mmHg 77%
    22:00 +20°C° 0 mm 4 m/S 758 mmHg 78%
    23:00 +19°C° 0 mm 4 m/S 758 mmHg 79%
    Mehr zeigen